Dewpoint
50 48 41 38 38 35 34 34 31 26 26 29 28 29 25 25 28 30 28 34 38 34 32 31 32 32 33 34 35 36 36 37 37 38 39 40 41 41
43 42 37 35 36 36 36 33 31 29 26 26 24 27 29 19 28 30 26 36 34 33 32 34 33 32 33 33 33 34 34 34 35 37 38 38 39 39
39 37 36 37 34 33 34 30 28 28 28 25 24 30 31 29 29 30 27 22 27 34 33 34 35 35 36 35 35 34 34 30 33 35 35 36 37 38
37 36 34 29 35 35 31 33 31 30 28 27 26 26 28 28 30 29 24 17 24 30 34 34 35 36 37 36 36 36 34 32 32 32 32 33 35 36
36 35 33 35 35 34 33 32 30 26 30 27 26 27 26 27 26 27 26 28 19 32 31 32 33 35 35 37 35 35 33 33 33 33 32 33 34 32
39 35 34 34 35 35 31 31 29 29 29 26 25 24 24 24 25 24 25 26 25 19 28 28 32 34 34 34 35 32 33 32 33 31 32 32 30 32
37 33 36 36 34 34 29 30 32 28 26 25 24 23 23 24 24 25 25 26 31 29 27 26 26 25 27 30 27 30 32 33 32 31 33 30 31 31
35 34 35 34 31 32 31 30 31 29 28 24 23 23 25 25 25 25 26 27 25 30 29 27 27 25 26 26 31 33 32 32 31 32 32 31 31 30
34 33 29 26 30 27 25 26 25 27 28 28 25 24 25 26 27 25 26 26 24 26 27 27 25 26 26 23 32 32 33 30 30 32 30 31 30 30
33 34 28 30 29 26 19 19 17 18 23 16 26 25 25 25 26 23 27 25 28 28 29 27 28 29 31 31 32 34 30 31 32 30 30 30 29 29
31 32 29 31 31 32 25 25 23 23 21 23 21 20 19 18 19 27 25 26 31 34 30 27 32 33 34 32 28 28 32 32 30 30 30 29 28 28
31 32 33 31 30 30 29 27 23 25 17 13 16 17 20 26 25 27 24 26 30 33 30 29 32 30 31 32 30 31 32 30 30 31 29 28 28 26
30 32 30 32 31 30 30 29 28 30 29 28 26 25 24 25 26 26 24 24 28 28 28 24 31 31 30 29 31 32 31 31 30 27 26 27 27 27
30 32 36 31 31 30 28 28 28 30 33 32 30 30 29 29 28 27 27 28 28 25 26 24 29 28 29 28 28 30 31 32 29 27 27 26 25 26
35 35 33 32 31 29 28 26 25 28 32 30 30 30 31 30 25 28 29 28 26 26 20 23 27 26 29 28 28 28 28 29 28 27 27 24 25 25
33 35 32 30 30 30 25 23 19 23 27 26 26 26 27 30 28 29 26 28 28 29 24 24 23 24 28 28 27 28 29 26 27 27 26 24 23 23
38 36 33 30 27 27 25 22 22 22 24 26 25 23 20 20 18 22 22 22 24 25 26 26 23 24 27 25 27 29 27 27 26 26 24 23 23 23
37 36 34 32 27 26 25 22 20 23 21 19 21 19 19 21 19 19 18 19 23 24 24 24 25 26 25 26 27 26 26 26 26 25 24 23 23 23
37 36 35 31 30 28 26 23 22 23 20 20 21 24 24 22 22 20 20 20 23 24 24 24 25 24 24 23 25 26 24 25 23 24 23 23 23 23
36 36 34 32 33 31 27 25 23 23 23 22 23 25 27 25 23 21 21 24 24 23 24 23 22 21 22 22 23 22 26 23 24 22 22 22 23 22
36 35 35 34 34 32 30 29 28 26 24 25 24 26 32 26 25 23 23 23 21 21 21 21 20 24 21 21 23 22 20 24 23 22 21 21 21 21
35 35 35 35 36 35 34 33 31 30 28 29 32 33 34 27 27 25 22 23 21 22 21 21 20 20 19 16 16 18 18 20 22 21 23 24 22 19
36 36 37 36 37 36 35 33 29 30 28 29 29 31 33 30 25 24 24 23 22 21 19 17 16 15 15 15 15 17 14 17 17 18 19 21 22 22
Lifted_Index
10 11 12 13 13 13 13 13 13 12 13 15 16 17 18 19 19 19 19 20 20 20 20 20 20 20 20 20 19 18 18 18 17 17 16 16 15 15
12 13 13 14 14 14 14 14 13 13 13 15 16 17 18 18 19 18 19 19 19 20 20 20 20 20 20 19 19 18 18 18 18 18 17 16 16 15
13 14 14 15 15 15 15 14 14 14 14 15 16 17 17 18 18 18 18 18 18 19 19 20 20 20 19 19 19 18 18 19 19 18 18 17 17 16
14 14 15 15 15 15 15 15 15 15 15 15 16 17 17 17 17 17 18 18 18 18 19 19 19 19 19 18 18 18 18 19 19 19 19 18 18 17
14 14 15 15 15 15 15 15 16 16 16 16 16 17 17 17 17 17 17 17 17 17 18 18 18 18 18 18 18 18 18 19 19 19 19 18 18 18
14 14 15 15 15 15 16 16 16 16 16 16 16 16 16 16 16 16 16 16 16 16 17 18 18 17 17 17 17 18 18 18 18 18 18 18 18 18
14 15 15 15 16 16 16 16 16 16 16 15 15 15 15 15 15 15 15 15 15 15 16 16 17 17 17 17 17 18 18 18 18 18 18 18 18 17
15 15 16 16 17 17 17 17 17 16 16 15 15 15 15 15 15 15 15 14 14 15 15 16 16 16 16 17 17 18 18 18 18 18 18 18 17 17
15 16 16 17 17 18 18 18 18 17 17 16 16 15 16 16 16 16 15 15 15 16 16 16 16 16 16 17 17 18 18 18 18 18 18 17 17 17
15 16 17 17 18 18 18 18 18 18 18 18 17 17 17 17 17 17 16 15 15 16 16 16 16 16 16 16 17 18 18 18 18 18 17 17 17 17
15 16 17 17 18 18 18 17 17 18 18 18 18 18 18 18 18 17 16 15 15 15 16 16 16 16 16 16 17 18 18 18 18 17 17 17 17 17
15 16 17 18 18 19 18 17 17 17 18 18 18 18 18 18 18 18 17 16 15 15 16 17 17 16 16 17 17 17 17 17 17 17 17 17 17 17
15 16 17 18 19 19 19 18 18 17 18 18 18 18 18 18 18 18 18 17 16 16 17 18 17 17 17 17 17 17 17 17 17 17 17 18 17 17
16 16 17 18 19 19 19 19 18 18 18 18 17 17 17 18 18 19 18 18 18 17 18 18 18 17 17 17 17 17 17 17 17 17 18 18 18 18
16 16 17 18 19 19 19 19 19 18 18 17 17 17 17 18 18 19 18 18 18 18 18 18 18 18 17 17 17 17 17 17 17 18 18 18 18 18
16 16 17 17 18 18 19 19 19 18 18 17 17 18 18 18 18 18 18 18 17 17 17 17 17 17 17 17 17 17 17 17 18 18 19 19 19 18
16 16 16 16 17 18 18 18 19 18 18 18 18 18 18 18 18 18 18 18 17 16 16 17 17 17 16 16 17 17 18 18 18 18 19 19 19 19
15 15 15 16 16 17 17 18 18 18 18 18 18 18 18 18 18 18 18 17 17 16 16 17 17 16 15 15 17 18 18 19 19 19 19 19 19 19
14 14 15 15 16 16 17 17 17 18 18 18 18 18 18 18 18 18 18 17 17 16 16 17 17 16 15 15 16 18 19 19 19 19 19 19 19 19
14 14 14 15 16 16 16 16 17 17 18 18 18 18 18 18 18 18 18 17 17 16 16 16 17 17 16 16 16 18 19 19 19 19 19 19 19 20
12 13 14 15 15 15 15 16 16 17 17 18 18 18 18 18 18 18 18 17 17 16 16 16 17 17 17 17 16 17 18 19 19 19 19 19 19 20
12 12 13 14 14 15 15 15 15 16 17 17 18 18 18 18 18 18 18 18 17 17 16 16 17 17 17 17 16 17 18 19 19 19 19 19 19 19
11 12 12 13 14 14 15 15 15 16 16 17 18 18 18 18 18 17 18 18 17 17 16 16 17 17 17 17 16 17 18 19 19 19 19 19 19 19